This is the latest recevied weather packets stored in our database for station/object N7NIP. If no packets are shown the sender has not sent any weather packets the latest 10 day(s).
| Time | Temp. | Humidity | Pressure | Rain* | Wind** | Luminosity | Snow |
|---|---|---|---|---|---|---|---|
| 1777737490 | 11.67° C | 88% | 1031.3 hPa | 0 mm | - | 160 W/m² | - |
| 1777737188 | 11.67° C | 89% | 1031.3 hPa | 0 mm | - | 158 W/m² | - |
| 1777736883 | 11.67° C | 88% | 1031.2 hPa | 0 mm | - | 156 W/m² | - |
| 1777736270 | 11.11° C | 89% | 1031.2 hPa | 0 mm | - | 211 W/m² | - |
| 1777735966 | 11.11° C | 89% | 1031.3 hPa | 0 mm | - | 154 W/m² | - |
| 1777735664 | 11.67° C | 89% | 1031.4 hPa | 0 mm | - | 147 W/m² | - |
| 1777735361 | 11.67° C | 88% | 1031.2 hPa | 0 mm | - | 140 W/m² | - |
| 1777735058 | 11.11° C | 90% | 1031.1 hPa | 0 mm | - | 133 W/m² | - |
| 1777734756 | 11.11° C | 90% | 1031 hPa | 0 mm | - | 126 W/m² | - |
| 1777734453 | 11.11° C | 90% | 1030.9 hPa | 0 mm | - | 116 W/m² | - |
| 1777734150 | 10.56° C | 92% | 1031 hPa | 0 mm | - | 103 W/m² | - |
| 1777733846 | 10.56° C | 90% | 1030.9 hPa | 0 mm | - | 100 W/m² | - |
| 1777733543 | 10.56° C | 90% | 1031 hPa | 0 mm | - | 98 W/m² | - |
| 1777733239 | 10.56° C | 91% | 1031 hPa | 0 mm | - | 102 W/m² | - |
| 1777732936 | 10.56° C | 91% | 1031 hPa | 0 mm | - | 105 W/m² | - |
| 1777732632 | 10.56° C | 92% | 1031.2 hPa | 0 mm | - | 105 W/m² | - |
| 1777732330 | 10.56° C | 92% | 1030.8 hPa | 0 mm | - | 98 W/m² | - |
| 1777732027 | 10° C | 93% | 1030.9 hPa | 0 mm | - | 93 W/m² | - |
| 1777731724 | 10° C | 94% | 1030.8 hPa | 0 mm | - | 76 W/m² | - |
| 1777731421 | 10° C | 94% | 1030.8 hPa | 0 mm | - | 62 W/m² | - |
| 1777731119 | 10° C | 94% | 1030.9 hPa | 0 mm | - | 50 W/m² | - |
| 1777730513 | 10° C | 98% | 1030.9 hPa | 0 mm | - | 33 W/m² | - |
| 1777730209 | 9.44° C | 99% | 1030.9 hPa | 0 mm | - | 32 W/m² | - |
| 1777729906 | 9.44° C | 99% | 1030.6 hPa | 0 mm | - | 32 W/m² | - |
| 1777729603 | 8.89° C | 99% | 1030.6 hPa | 0 mm | - | 31 W/m² | - |
* Rain latest hour (hover to see other rain measurements)
** Current wind speed in m/s (hover to see current wind gust speed)